| time (UTC) | temp C | wind direction | speed KPH | gust KPH | rain 1hr cm | rain 24hr cm | rain mn cm | humidity % | barometer mb |
| 20260505124522 | 2 | 220 | 11.3 | 16.1 | 0.00 | 0.00 | 0.00 | 85 | 1013.0 |
| 20260505123542 | 2 | 227 | 9.7 | 14.5 | 0.00 | 0.00 | 0.00 | 85 | 1012.8 |
| 20260505122519 | 2 | 220 | 9.7 | 16.1 | 0.00 | 0.00 | 0.00 | 86 | 1012.8 |
| 20260505121522 | 2 | 223 | 6.4 | 9.7 | 0.00 | 0.00 | 0.00 | 86 | 1012.9 |
| 20260505120522 | 2 | 253 | 6.4 | 9.7 | 0.00 | 0.00 | 0.00 | 86 | 1012.9 |
| 20260505115522 | 2 | 210 | 6.4 | 9.7 | 0.00 | 0.00 | 0.00 | 86 | 1012.7 |
| 20260505114527 | 1 | 169 | 3.2 | 6.4 | 0.00 | 0.00 | 0.00 | 86 | 1012.8 |
| 20260505113547 | 2 | 163 | 3.2 | 4.8 | 0.00 | 0.00 | 0.00 | 86 | 1012.6 |
| 20260505112547 | 2 | 163 | 3.2 | 6.4 | 0.00 | 0.00 | 0.00 | 86 | 1012.5 |
| 20260505111517 | 2 | 157 | 4.8 | 9.7 | 0.00 | 0.00 | 0.00 | 86 | 1012.7 |
| 20260505110543 | 2 | 195 | 6.4 | 8.0 | 0.00 | 0.00 | 0.00 | 85 | 1012.5 |
| 20260505101518 | 3 | 165 | 11.3 | 14.5 | 0.00 | 0.00 | 0.00 | 84 | 1012.8 |
| 20260505100558 | 3 | 171 | 11.3 | 16.1 | 0.00 | 0.00 | 0.00 | 83 | 1012.9 |
| 20260505095518 | 3 | 184 | 14.5 | 19.3 | 0.00 | 0.00 | 0.00 | 83 | 1013.0 |
| 20260505094559 | 3 | 185 | 12.9 | 17.7 | 0.00 | 0.00 | 0.00 | 83 | 1013.2 |
| 20260505093519 | 3 | 189 | 12.9 | 17.7 | 0.00 | 0.00 | 0.00 | 83 | 1013.1 |
| 20260505092519 | 3 | 191 | 14.5 | 22.5 | 0.00 | 0.00 | 0.00 | 82 | 1013.2 |
| 20260505091519 | 3 | 188 | 12.9 | 17.7 | 0.00 | 0.00 | 0.00 | 82 | 1013.1 |
| 20260505090519 | 3 | 176 | 14.5 | 20.9 | 0.00 | 0.00 | 0.00 | 82 | 1013.1 |
| 20260505085520 | 3 | 186 | 16.1 | 20.9 | 0.00 | 0.00 | 0.00 | 81 | 1013.2 |
| 20260505084537 | 3 | 188 | 11.3 | 16.1 | 0.00 | 0.00 | 0.00 | 81 | 1013.3 |
| 20260505083520 | 3 | 188 | 11.3 | 16.1 | 0.00 | 0.00 | 0.00 | 80 | 1013.4 |
| 20260505082520 | 4 | 188 | 9.7 | 12.9 | 0.00 | 0.00 | 0.00 | 79 | 1013.4 |
| 20260505081520 | 4 | 178 | 8.0 | 11.3 | 0.00 | 0.00 | 0.00 | 78 | 1013.4 |
| 20260505080521 | 4 | 180 | 8.0 | 12.9 | 0.00 | 0.00 | 0.00 | 76 | 1013.4 |
| 20260505075521 | 5 | 187 | 8.0 | 9.7 | 0.00 | 0.00 | 0.00 | 75 | 1013.6 |
| 20260505074541 | 5 | 197 | 8.0 | 9.7 | 0.00 | 0.00 | 0.00 | 72 | 1013.6 |
| 20260505073521 | 5 | 186 | 9.7 | 14.5 | 0.00 | 0.00 | 0.00 | 70 | 1013.5 |
| 20260505072521 | 5 | 161 | 6.4 | 9.7 | 0.00 | 0.00 | 0.00 | 70 | 1013.6 |
| 20260505071522 | 5 | 118 | 3.2 | 8.0 | 0.00 | 0.00 | 0.00 | 68 | 1013.6 |
| 20260505070519 | 5 | 155 | 6.4 | 8.0 | 0.00 | 0.00 | 0.00 | 73 | 1013.5 |
| 20260505065519 | 5 | 104 | 3.2 | 4.8 | 0.00 | 0.00 | 0.00 | 75 | 1013.6 |
| 20260505064519 | 5 | 162 | 4.8 | 6.4 | 0.00 | 0.00 | 0.00 | 75 | 1013.5 |
| 20260505063519 | 6 | 121 | 4.8 | 6.4 | 0.00 | 0.00 | 0.00 | 71 | 1013.4 |
| 20260505062519 | 6 | 205 | 0.0 | 3.2 | 0.00 | 0.00 | 0.00 | 72 | 1013.5 |
| 20260505061540 | 6 | 182 | 3.2 | 4.8 | 0.00 | 0.00 | 0.00 | 74 | 1013.3 |
| 20260505060540 | 6 | 75 | 3.2 | 4.8 | 0.00 | 0.00 | 0.00 | 69 | 1013.4 |
| 20260505055520 | 6 | 62 | 3.2 | 4.8 | 0.00 | 0.00 | 0.00 | 67 | 1013.3 |
| 20260505054540 | 6 | 345 | 1.6 | 4.8 | 0.00 | 0.00 | 0.00 | 68 | 1013.5 |
| 20260505053517 | 6 | 85 | 4.8 | 9.7 | 0.00 | 0.00 | 0.00 | 70 | 1013.4 |
| 20260505052543 | 6 | 65 | 6.4 | 8.0 | 0.00 | 0.00 | 0.00 | 72 | 1013.4 |
| 20260505051520 | 6 | 154 | 4.8 | 6.4 | 0.00 | 0.00 | 0.00 | 71 | 1013.4 |
| 20260505050518 | 6 | 173 | 6.4 | 8.0 | 0.00 | 0.00 | 0.00 | 72 | 1013.4 |
| 20260505041519 | 8 | 73 | 9.7 | 14.5 | 0.00 | 0.00 | 0.00 | 64 | 1013.0 |
| 20260505040522 | 8 | 101 | 4.8 | 6.4 | 0.00 | 0.00 | 0.00 | 62 | 1013.0 |
| 20260505035519 | 8 | 79 | 4.8 | 11.3 | 0.00 | 0.00 | 0.00 | 61 | 1013.0 |
| 20260505034519 | 8 | 79 | 6.4 | 11.3 | 0.00 | 0.00 | 0.00 | 60 | 1012.9 |
| 20260505033519 | 8 | 68 | 8.0 | 16.1 | 0.00 | 0.00 | 0.00 | 58 | 1012.8 |
| 20260505032519 | 8 | 51 | 11.3 | 16.1 | 0.00 | 0.00 | 0.00 | 62 | 1012.7 |
| 20260505031520 | 8 | 54 | 12.9 | 14.5 | 0.00 | 0.00 | 0.00 | 64 | 1012.6 |
| 20260505030520 | 8 | 58 | 11.3 | 14.5 | 0.00 | 0.00 | 0.00 | 58 | 1012.7 |
| 20260505025520 | 8 | 354 | 6.4 | 14.5 | 0.00 | 0.00 | 0.00 | 64 | 1012.7 |
| 20260505023523 | 8 | 0 | 1.6 | 4.8 | 0.00 | 0.00 | 0.00 | 58 | 1012.2 |
| 20260505022523 | 9 | 343 | 3.2 | 4.8 | 0.00 | 0.00 | 0.00 | 58 | 1012.0 |
| 20260505021524 | 10 | 329 | 1.6 | 3.2 | 0.00 | 0.00 | 0.00 | 52 | 1011.9 |
| 20260505020524 | 10 | 282 | 1.6 | 4.8 | 0.00 | 0.00 | 0.00 | 48 | 1011.7 |
| 20260505015524 | 11 | 333 | 1.6 | 3.2 | 0.00 | 0.00 | 0.00 | 47 | 1011.5 |
| 20260505014521 | 11 | 56 | 9.7 | 12.9 | 0.00 | 0.00 | 0.00 | 45 | 1011.4 |
| 20260505013518 | 11 | 41 | 12.9 | 24.1 | 0.00 | 0.00 | 0.00 | 45 | 1011.4 |
| 20260505012522 | 12 | 40 | 11.3 | 16.1 | 0.00 | 0.00 | 0.00 | 41 | 1011.3 |
| 20260505011522 | 12 | 35 | 9.7 | 14.5 | 0.00 | 0.00 | 0.00 | 42 | 1011.1 |
| 20260505010522 | 12 | 360 | 6.4 | 12.9 | 0.00 | 0.00 | 0.00 | 40 | 1011.1 |
| 20260505005525 | 13 | 334 | 3.2 | 4.8 | 0.00 | 0.00 | 0.00 | 35 | 1010.9 |
| 20260505004519 | 13 | 303 | 9.7 | 20.9 | 0.00 | 0.00 | 0.00 | 35 | 1010.9 |
| 20260505003542 | 13 | 296 | 9.7 | 12.9 | 0.00 | 0.00 | 0.00 | 36 | 1011.0 |
| 20260505002603 | 13 | 289 | 8.0 | 11.3 | 0.00 | 0.00 | 0.00 | 34 | 1010.9 |
| 20260505001523 | 13 | 276 | 8.0 | 9.7 | 0.00 | 0.00 | 0.00 | 33 | 1010.9 |
| 20260505000517 | 13 | 289 | 8.0 | 12.9 | 0.00 | 0.00 | 0.00 | 33 | 1010.9 |
| 20260504235517 | 13 | 311 | 4.8 | 11.3 | 0.00 | 0.00 | 0.00 | 32 | 1010.9 |
| 20260504234526 | 14 | 338 | 1.6 | 6.4 | 0.00 | 0.00 | 0.00 | 30 | 1011.0 |
| 20260504233526 | 14 | 261 | 1.6 | 4.8 | 0.00 | 0.00 | 0.00 | 31 | 1011.0 |
| 20260504232546 | 14 | 14 | 1.6 | 4.8 | 0.00 | 0.00 | 0.00 | 31 | 1011.1 |
| 20260504231518 | 14 | 350 | 6.4 | 9.7 | 0.00 | 0.00 | 0.00 | 31 | 1011.0 |
| 20260504230518 | 14 | 254 | 11.3 | 19.3 | 0.00 | 0.00 | 0.00 | 30 | 1010.9 |
| 20260504225518 | 14 | 252 | 8.0 | 14.5 | 0.00 | 0.00 | 0.00 | 31 | 1010.9 |
| 20260504224518 | 14 | 276 | 3.2 | 11.3 | 0.00 | 0.00 | 0.00 | 31 | 1010.9 |
| 20260504223518 | 13 | 259 | 8.0 | 12.9 | 0.00 | 0.00 | 0.00 | 32 | 1011.2 |
| 20260504222519 | 13 | 257 | 9.7 | 19.3 | 0.00 | 0.00 | 0.00 | 32 | 1011.3 |
| 20260504221539 | 13 | 284 | 6.4 | 11.3 | 0.00 | 0.00 | 0.00 | 33 | 1011.4 |
| 20260504220528 | 13 | 313 | 3.2 | 4.8 | 0.00 | 0.00 | 0.00 | 33 | 1011.5 |
| 20260504215548 | 13 | 328 | 4.8 | 8.0 | 0.00 | 0.00 | 0.00 | 34 | 1011.8 |
| 20260504214519 | 13 | 275 | 8.0 | 16.1 | 0.00 | 0.00 | 0.00 | 35 | 1011.9 |
| 20260504213540 | 13 | 266 | 9.7 | 17.7 | 0.00 | 0.00 | 0.00 | 35 | 1012.0 |
| 20260504212519 | 13 | 255 | 4.8 | 8.0 | 0.00 | 0.00 | 0.00 | 35 | 1012.1 |
| 20260504211520 | 13 | 282 | 4.8 | 9.7 | 0.00 | 0.00 | 0.00 | 35 | 1012.4 |
| 20260504210529 | 13 | 206 | 1.6 | 9.7 | 0.00 | 0.00 | 0.00 | 35 | 1012.6 |
| 20260504205540 | 13 | 351 | 6.4 | 9.7 | 0.00 | 0.00 | 0.00 | 36 | 1012.7 |
| 20260504204540 | 13 | 290 | 6.4 | 9.7 | 0.00 | 0.00 | 0.00 | 36 | 1012.9 |
| 20260504203540 | 13 | 299 | 8.0 | 14.5 | 0.00 | 0.00 | 0.00 | 36 | 1013.0 |
| 20260504202521 | 12 | 304 | 12.9 | 20.9 | 0.00 | 0.00 | 0.00 | 37 | 1013.2 |
| 20260504201518 | 12 | 300 | 12.9 | 19.3 | 0.00 | 0.00 | 0.00 | 37 | 1013.4 |
| 20260504200541 | 12 | 311 | 9.7 | 14.5 | 0.00 | 0.00 | 0.00 | 40 | 1013.6 |
| 20260504195518 | 12 | 300 | 12.9 | 17.7 | 0.00 | 0.00 | 0.00 | 41 | 1013.7 |
| 20260504194538 | 12 | 343 | 11.3 | 22.5 | 0.00 | 0.00 | 0.00 | 39 | 1013.6 |
| 20260504193519 | 12 | 10 | 11.3 | 19.3 | 0.00 | 0.00 | 0.00 | 34 | 1013.4 |
| 20260504192519 | 12 | 357 | 11.3 | 16.1 | 0.00 | 0.00 | 0.00 | 33 | 1013.5 |
| 20260504191519 | 12 | 359 | 11.3 | 17.7 | 0.00 | 0.00 | 0.00 | 32 | 1013.6 |
| 20260504190520 | 13 | 292 | 12.9 | 17.7 | 0.00 | 0.00 | 0.00 | 31 | 1013.5 |
| 20260504185520 | 14 | 326 | 11.3 | 17.7 | 0.00 | 0.00 | 0.00 | 29 | 1013.5 |
| 20260504184517 | 14 | 324 | 14.5 | 25.7 | 0.00 | 0.00 | 0.00 | 29 | 1013.6 |
| 20260504183537 | 13 | 323 | 11.3 | 19.3 | 0.00 | 0.00 | 0.00 | 29 | 1013.8 |
| 20260504182520 | 14 | 302 | 14.5 | 24.1 | 0.00 | 0.00 | 0.00 | 29 | 1013.9 |
| 20260504181538 | 14 | 294 | 17.7 | 30.6 | 0.00 | 0.00 | 0.00 | 27 | 1014.0 |
| 20260504180518 | 13 | 304 | 12.9 | 24.1 | 0.00 | 0.00 | 0.00 | 28 | 1014.1 |
| 20260504175538 | 13 | 300 | 14.5 | 22.5 | 0.00 | 0.00 | 0.00 | 29 | 1014.1 |
| 20260504174518 | 13 | 320 | 14.5 | 24.1 | 0.00 | 0.00 | 0.00 | 30 | 1014.2 |
| 20260504173558 | 13 | 293 | 17.7 | 32.2 | 0.00 | 0.00 | 0.00 | 30 | 1014.2 |
| 20260504172522 | 13 | 327 | 14.5 | 20.9 | 0.00 | 0.00 | 0.00 | 30 | 1014.4 |
| 20260504171539 | 13 | 326 | 12.9 | 19.3 | 0.00 | 0.00 | 0.00 | 32 | 1014.5 |
| 20260504170539 | 12 | 311 | 12.9 | 20.9 | 0.00 | 0.00 | 0.00 | 33 | 1014.5 |
| 20260504150521 | 10 | 349 | 9.7 | 16.1 | 0.00 | 0.00 | 0.00 | 43 | 1015.9 |
| 20260504140519 | 10 | 358 | 9.7 | 16.1 | 0.00 | 0.00 | 0.00 | 48 | 1015.6 |
| 20260504130517 | 6 | 260 | 6.4 | 11.3 | 0.00 | 0.00 | 0.00 | 64 | 1015.3 |